Mills, WY

3:39 PM MDT on August 29, 2016 (GMT -0600)
Natrona County International

Weather History for KCPR - October, 2012

Change the Weather History Date:

Friday, October 26, 2012

  Actual Average Record
Temperature  
Mean Temperature 28 °F 42 °F  
Max Temperature 37 °F 55 °F 74 °F (1977)
Min Temperature 19 °F 29 °F 12 °F (2002)
Degree Days  
Heating Degree Days 37 23  
Month to date heating degree days 534 495  
Since 1 July heating degree days 683 780  
Cooling Degree Days 0 0  
Month to date cooling degree days 0 0  
Year to date cooling degree days 697 422  
Moisture  
Dew Point 19 °F    
Average Humidity 70    
Maximum Humidity 88    
Minimum Humidity 52    
Precipitation  
Precipitation T in 0.03 in 0.59 in (1989)
Month to date precipitation 0.56 0.94  
Year to date precipitation 7.00 11.10  
Snow  
Snow T in 0.30 in - ()
Month to date snowfall 4.8 5.9  
Since 1 July snowfall 4.8 7.7  
Since 1 September snowfall 4.8 7.7  
Snow Depth T in    
Sea Level Pressure  
Sea Level Pressure 30.35 in    
Wind  
Wind Speed 11 mph (WSW)    
Max Wind Speed 20 mph    
Max Gust Speed 30 mph    
Visibility 10 miles    
Events      
T = Trace of Precipitation, MM = Missing Value Source: NWS Daily Summary

Daily Weather History Graph

Daily Weather History Graph

Search for Another Location

Airport or City:

Trip Planner

Search our weather history database for the weather conditions in past years. The results will help you decide how hot, cold, wet, or windy it might be!

Date:

Astronomy

Oct. 26, 2012 Rise Set
Actual Time 7:33 AM MDT 6:05 PM MDT
Civil Twilight 7:04 AM MDT 6:34 PM MDT
Nautical Twilight 6:31 AM MDT 7:07 PM MDT
Astronomical Twilight 5:58 AM MDT 7:40 PM MDT
Moon 4:25 PM MDT (10/26) 4:28 AM MDT (10/26)
Length of Visible Light 11h 30m
Length of Day
10h 32m
Waxing Gibbous, 91% of the Moon is Illuminated
Oct 26
Waxing Gibbous
Oct 29
Full
Nov 6
Last Quarter
Nov 13
New
Nov 20
First Quarter

Hourly Weather History & Observations

Time (MDT) Temp. Windchill Dew Point Humidity Pressure Visibility Wind Dir Wind Speed Gust Speed Precip Events Conditions
12:53 AM 23.0 °F 15.8 °F 19.0 °F 85% 30.44 in 10.0 mi NNE 5.8 mph - 0.00 in   Overcast
1:51 AM 23.0 °F 17.0 °F 19.4 °F 86% 30.34 in 10.0 mi NNE 4.6 mph - N/A   Overcast
1:53 AM 23.0 °F 17.0 °F 19.0 °F 85% 30.45 in 10.0 mi NNE 4.6 mph - N/A   Overcast
2:15 AM 23.0 °F 18.4 °F 19.4 °F 86% 30.34 in 10.0 mi NNW 3.5 mph - N/A   Overcast
2:53 AM 23.0 °F - 19.0 °F 85% 30.45 in 10.0 mi Calm Calm - N/A   Overcast
3:53 AM 23.0 °F 17.0 °F 18.0 °F 81% 30.46 in 10.0 mi NNW 4.6 mph - N/A   Overcast
4:53 AM 21.9 °F - 18.0 °F 85% 30.47 in 10.0 mi Calm Calm - N/A   Overcast
5:30 AM 19.4 °F 12.8 °F 15.8 °F 86% 30.36 in 10.0 mi SW 4.6 mph - N/A   Scattered Clouds
5:53 AM 19.0 °F 11.1 °F 16.0 °F 88% 30.49 in 10.0 mi WSW 5.8 mph - N/A   Scattered Clouds
6:53 AM 19.4 °F 10.4 °F 15.8 °F 86% 30.36 in 10.0 mi SW 6.9 mph - N/A   Mostly Cloudy
7:09 AM 19.4 °F 9.5 °F 15.8 °F 86% 30.36 in 10.0 mi West 8.1 mph - N/A   Scattered Clouds
7:53 AM 19.9 °F 10.1 °F 16.0 °F 85% 30.49 in 10.0 mi WSW 8.1 mph - N/A   Clear
8:53 AM 25.0 °F 14.8 °F 21.0 °F 85% 30.48 in 10.0 mi WSW 10.4 mph - N/A   Clear
9:53 AM 28.4 °F 16.2 °F 19.4 °F 69% 30.35 in 10.0 mi SW 17.3 mph - N/A   Clear
10:53 AM 28.9 °F 17.7 °F 21.0 °F 72% 30.46 in 10.0 mi SW 15.0 mph 21.9 mph N/A   Mostly Cloudy
11:27 AM 30.2 °F 18.5 °F 21.2 °F 69% 30.35 in 10.0 mi SW 17.3 mph - N/A   Scattered Clouds
11:53 AM 32.0 °F 20.5 °F 23.0 °F 69% 30.44 in 10.0 mi SW 18.4 mph - N/A   Clear
12:53 PM 34.0 °F 24.6 °F 21.0 °F 59% 30.38 in 10.0 mi SW 13.8 mph - N/A   Clear
1:53 PM 36.0 °F 25.3 °F 23.0 °F 59% 30.32 in 10.0 mi SW 19.6 mph 27.6 mph N/A   Clear
2:53 PM 36.0 °F 26.0 °F 19.0 °F 50% 30.30 in 10.0 mi SW 17.3 mph 24.2 mph N/A   Clear
3:53 PM 35.1 °F 24.5 °F 19.0 °F 52% 30.30 in 10.0 mi SW 18.4 mph - N/A   Clear
4:53 PM 36.0 °F 26.0 °F 19.9 °F 52% 30.27 in 10.0 mi WSW 17.3 mph 24.2 mph N/A   Clear
5:53 PM 33.1 °F 22.2 °F 19.9 °F 59% 30.26 in 10.0 mi WSW 17.3 mph 25.3 mph N/A   Clear
6:53 PM 30.9 °F 22.2 °F 19.9 °F 64% 30.25 in 10.0 mi SW 10.4 mph - N/A   Clear
7:53 PM 30.9 °F 22.2 °F 19.0 °F 61% 30.24 in 10.0 mi SW 10.4 mph - N/A   Clear
8:53 PM 32.0 °F 23.6 °F 19.0 °F 59% 30.19 in 10.0 mi SW 10.4 mph - N/A   Partly Cloudy
9:53 PM 33.1 °F 24.4 °F 19.0 °F 56% 30.18 in 10.0 mi SW 11.5 mph - N/A   Mostly Cloudy
10:53 PM 32.0 °F 22.5 °F 19.9 °F 61% 30.16 in 10.0 mi SW 12.7 mph - N/A   Mostly Cloudy
11:53 PM 30.9 °F 26.2 °F 19.9 °F 64% 30.15 in 10.0 mi WNW 4.6 mph - N/A   Overcast